Regional Weather Roundup
Issued by NWS Green Bay, WI

Home | Current Version | Previous Version | Graphics & Text | Print | Product List | Glossary Off
Versions: 1 2 3 4 5 6 7 8 9 10 11 12 13 14 15 16 17 18 19 20 21 22 23 24 25 26 27 28 29 30 31 32 33 34 35 36 37 38 39 40 41 42 43 44 45 46 47 48 49 50

000
ASUS43 KGRB 182011
RWRGRB

NORTH-CENTRAL AND NORTHEAST WISCONSIN REGIONAL WEATHER ROUNDUP
NATIONAL WEATHER SERVICE GREEN BAY WI
300 PM CDT FRI AUG 18 2017

WIZ005-009-010>012-018-019-182100-
NORTH CENTRAL WISCONSIN

CITY           SKY/WX    TMP DP  RH WIND       PRES   REMARKS
IRONWOOD       MOSUNNY   68  53  58 NW10      29.86S
MANITOWISH WTR CLOUDY    67  57  71 N6        29.86R
ARBOR VITAE    CLOUDY    68  56  65 NW12      29.85S
EAGLE RIVER    CLOUDY    67  52  60 NW10G16   29.84S
LAND O LAKES   CLOUDY    67  54  63 N9G18     29.85S
RHINELANDER    CLOUDY    69  56  62 NW7       29.85S
PHILLIPS       CLOUDY    67  57  70 NW6       29.87R
ANTIGO         PTSUNNY   68  57  68 NW13G21   29.84S
TOMAHAWK         N/A     69  55  62 W13       29.85F
MERRILL        CLOUDY    70  59  68 W9        29.85F
$$

WIZ013-073-182100-
NORTHEAST WISCONSIN

CITY           SKY/WX    TMP DP  RH WIND       PRES   REMARKS
IRON MOUNTAIN  CLOUDY    68  54  60 N14       29.79S
MARINETTE      CLOUDY    70  58  65 VRB7      29.79R
OCONTO         CLOUDY    71  60  66 W10       29.79F
$$

WIZ017-030-035>037-045-182100-
CENTRAL WISCONSIN

CITY           SKY/WX    TMP DP  RH WIND       PRES   REMARKS
MEDFORD        PTSUNNY   65  58  75 W8        29.87S
WAUSAU         CLOUDY    68  59  73 W8        29.83F
MOSINEE        CLOUDY    68  59  73 W10       29.87S
MARSHFIELD     CLOUDY    69  59  70 W12       29.86S
WISC RAPIDS    CLOUDY    71  60  68 W12       29.87S
STEVENS POINT  PTSUNNY   68  57  68 W10G16    29.86S
WAUPACA        PTSUNNY   74  60  60 W10       29.84S
SHAWANO        CLOUDY    73  59  62 W9        29.82S
CLINTONVILLE   CLOUDY    70  57  64 W8        29.82F
WAUTOMA        MOSUNNY   74  59  59 NW13G18   29.85S
$$

WIZ038-039-048-051-182100-
FOX VALLEY

CITY           SKY/WX    TMP DP  RH WIND       PRES   REMARKS
NWS GREEN BAY  CLOUDY    70  63  78 W12       29.81S
APPLETON       PTSUNNY   70  55  60 W15       29.82F
OSHKOSH        CLOUDY    72  60  66 NW8       29.83F
FOND DU LAC    PTSUNNY   73  59  61 NW8       29.83F
$$

WIZ022-050-052-182100-
EAST CENTRAL WISCONSIN

CITY           SKY/WX    TMP DP  RH WIND       PRES   REMARKS
EPHRAIM        CLOUDY    68  57  68 W9        29.78R
WASHINGTON ISL CLOUDY    67  58  72 NW6       29.76R
STURGEON BAY   CLOUDY    70  60  70 W10       29.81R
MANITOWOC      CLOUDY    71  59  65 W15       29.82R
SHEBOYGAN      CLOUDY    72  62  71 NW10G17   29.83S
$$

LMZ563-521-522-541>543-182100-
LAKESHORE

STATION/POSITION TIME  TEMP    WIND        PRES    VSBY  WAVE
                       AIR SEA DIR/SP/G                  HT/PER
                 (UTC) (F)     (DEG/KT/KT) (MB)    (MI)  (FT/S)
SHEBOYGAN LKSHOR 2000   69     290/ 14/ 17 1009.7R
KEWAUNEE LKSHORE 1942   72     310/  7/ 12 1008.4R
NORTHPORT PIER   1940   67     320/  5/  9 1008.1R
N MID LAKE BUOY  1950   65 67  290/ 12/ 16 1008.1R         4/ 5
S GREEN BAY BUOY 2000   71 71  270/  8/ 10 1009.0
SISTER BAY LKSHO 2003   70     320/ 16/ 18   N/A
MENOMINEE LKSHOR 1942   71     270/  5/  9 1008.5R
$$




USA.gov is the U.S. government's official web portal to all federal, state and local government web resources and services.